LTCF

Details ICAO LTCF (KSY)
Name KARS
Region Turkey
Timezone Europe/Istanbul (UTC+3.0)
Plans Departing 31
Arriving 53
Stats Elevation 5,889 ft / 1,795 m (AMSL)
Location 40.562083° 43.115000°
Runways 1
Magnetic Variation 6.335° E
Sunrise 2018-05-24 01:45:13 UTC / 2018-05-24 04:45:13 Local
Sunset 2018-05-24 16:26:23 UTC / 2018-05-24 19:26:23 Local
Advertisement - Login to hide

Runways

ID Width Length Bearing (true) Bearing (mag) Surface Threshold Offset Overrun Length
06 148 ft / 45 m 11,452 ft / 3,491 m 64.28° 57.94° Concrete 0 ft / 0 m 195 ft / 59 m
24 148 ft / 45 m 11,452 ft / 3,491 m 244.31° 237.97° Concrete 0 ft / 0 m 195 ft / 59 m

Approach Navaids

Runway Type Ident Frequency Range Bearing (true) Bearing (mag) Slope Elevation
06 Localiser IKAR 108.30 MHz 18 nm / 33 km 64.87° 58.53° - 5,899 ft / 1,798 m (AMSL)
06 Glidescope IKAR 108.30 MHz 10 nm / 19 km 64.30° 57.96° 3.00° 5,882 ft / 1,793 m (AMSL)

Map

Weather


0- 5 10 15 20 25 30 35+ Temperature / ° C

Clouds and Precipitation
Forecast for 2018-05-24 12:00 UTC. Updated an hour ago

Ground ~20,000 ft ~40,000 ft Winds

METAR

LTCF 241150Z 11013KT 9999 FEW025CB BKN030 16/07 Q1019

TAF

Not found

Frequencies

Tower 121.90 MHz TWR
Tower 122.40 MHz TWR
Warning: Do not use this data for real-world aviation or navigation. No guarantee of current accuracy is given.